Regional Weather Roundup
Issued by NWS

Home | Current Version | Previous Version | Graphics & Text | Print | Product List | Glossary Off
Versions: 1 2 3 4 5 6 7 8 9 10 11 12 13 14 15 16 17 18 19 20 21 22 23 24 25 26 27 28 29 30 31 32 33 34 35 36 37 38 39 40 41 42 43 44 45 46 47 48 49 50

709
ASUS43 KMKX 252100
RWRWI

WISCONSIN REGIONAL WEATHER ROUNDUP
NATIONAL WEATHER SERVICE MILWAUKEE/SULLIVAN WI
400 PM CDT SUN JUN 25 2017

NOTE: "FAIR" INDICATES FEW OR NO CLOUDS BELOW 12,000 FEET WITH NO
SIGNIFICANT WEATHER AND/OR OBSTRUCTIONS TO VISIBILITY.

WIZ001-002-006>008-014>016-023>028-252200-
NORTHWEST WISCONSIN

CITY           SKY/WX    TMP DP  RH WIND       PRES   REMARKS
SUPERIOR ARPT  NOT AVBL
ASHLAND        CLOUDY    56  50  80 NW14      30.06F
HAYWARD        CLOUDY    57  48  72 VRB6      30.09R
SIREN          PTSUNNY   64  43  47 NW21G33   30.10S
CUMBERLAND     PTSUNNY   61  45  55 NW14G22   30.10S
RICE LAKE      CLOUDY    60  46  60 NW12G22   30.12R
CHETEK         CLOUDY    61  51  69 NW9G21    30.10R
LADYSMITH      CLOUDY    58  51  77 NW8G16    30.09S
EAU CLAIRE     CLOUDY    62  52  69 N13G23    30.09R
MENOMONIE      MOSUNNY   64  46  52 W20G29    30.11R
NEW RICHMOND   PTSUNNY   64  42  44 NW15G25   30.12S
OSCEOLA        MOSUNNY   67  43  41 NW14G20   30.14F
$$

WIZ003>005-009-010-017-018-252200-
NORTH CENTRAL WISCONSIN

CITY           SKY/WX    TMP DP  RH WIND       PRES   REMARKS
MANITOWISH WTR LGT RAIN  54  54 100 W12       30.03R
ARBOR VITAE    CLOUDY    56  55  93 NW6       30.03R
WOODRUFF       CLOUDY    56  55  93 NW6       30.03R
RHINELANDER    RAIN      53  52  96 W9        30.04R FOG
EAGLE RIVER    HVY RAIN  52  50  93 CALM      30.01R
LAND O LAKES   HVY RAIN  54  52  94 NW5       30.03R
PHILLIPS       PTSUNNY   54  50  86 NW12G18   30.05R
TOMAHAWK       NOT AVBL
MEDFORD        LGT RAIN  55  52  89 W10       30.05F
MERRILL        LGT RAIN  55  54  96 NW7       30.05R
$$

WIZ029-030-035-036-043>047-252200-
CENTRAL WISCONSIN

CITY           SKY/WX    TMP DP  RH WIND       PRES   REMARKS
WAUSAU         LGT RAIN  57  53  86 W14G21    30.04R
MOSINEE        RAIN      55  52  88 W20G25    30.06R
MARSHFIELD     LGT RAIN  55  51  86 W10       30.06R
STEVENS POINT  PTSUNNY   63  50  63 W15       30.04F
WAUPACA        PTSUNNY   67  50  55 W12G24    30.04S
WAUTOMA        CLOUDY    63  52  67 NW10      30.07
WISC RAPIDS    CLOUDY    64  51  62 W17G23    30.06S
CAMP DOUGLAS   PTSUNNY   59  55  84 W8        30.08R
$$

WIZ011>013-019>022-031-037>040-048>050-252200-
NORTHEAST WISCONSIN

CITY           SKY/WX    TMP DP  RH WIND       PRES   REMARKS
ANTIGO         LGT RAIN  54  51  92 W13       30.03R
SHAWANO        PTSUNNY   68  49  50 W13G21    30.00S
OCONTO         PTSUNNY   68  51  54 W13G18    29.98S
STURGEON BAY   LGT RAIN  62  53  72 SW10        N/A
GREEN BAY      PTSUNNY   70  53  54 W20G25    29.99S
MANITOWOC      NOT AVBL
APPLETON       PTSUNNY   66  46  48 W17       30.01S
CLINTONVILLE   PTSUNNY   66  46  48 W16G24    30.02R
OSHKOSH        MOSUNNY   67  51  56 VRB7G18   30.03S
$$

WIZ032>034-041-042-053>061-252200-
SOUTHWEST WISCONSIN

CITY           SKY/WX    TMP DP  RH WIND       PRES   REMARKS
LA CROSSE      CLOUDY    69  54  58 W12       30.10F
SPARTA         LGT RAIN  60  55  84 W12       30.11R
VIROQUA        CLOUDY    59  54  83 W12G18    30.13R
BOSCOBEL       PTSUNNY   66  50  56 W10G18    30.13S
PRAIRIE DU CHI PTSUNNY   64  48  57 W14G21    30.14S
PLATTEVILLE    CLOUDY    64  51  64 W14G21    30.14F
$$

WIZ056-057-062-063-064-067-068-252200-
SOUTH CENTRAL WISCONSIN

CITY           SKY/WX    TMP DP  RH WIND       PRES   REMARKS
REEDSBURG      CLOUDY    64  51  64 W10       30.09F
BARABOO/DELLS  CLOUDY    64  49  58 W10       30.09S
LONE ROCK      CLOUDY    64  50  60 W15G21    30.10F
MINERAL POINT  PTSUNNY   63  52  67 W13G21    30.13S
MADISON        PTSUNNY   63  50  62 VRB5      30.09F
MIDDLETON      CLOUDY    62  51  66 W12       30.11S
WATERTOWN      NOT AVBL
MONROE         CLOUDY    63  46  55 W17G23    30.12S
JANESVILLE     CLOUDY    66  48  52 W16       30.09F
$$

WIZ051-052-058>065-066-070>072-252200-
SOUTHEAST WISCONSIN

CITY           SKY/WX    TMP DP  RH WIND       PRES   REMARKS
MILWAUKEE      MOSUNNY   71  47  42 W16G23    30.04F
WAUKESHA       MOSUNNY   64  46  52 W18G25    30.07F
MILWAUKEE/TIMM PTSUNNY   68  46  45 W17G24    30.06F
RACINE         MOSUNNY   70  47  43 NW14G23   30.07S
KENOSHA        PTSUNNY   68  49  50 W12G23    30.06F
FOND DU LAC    MOSUNNY   67  49  52 W13       30.04S
SHEBOYGAN      MOSUNNY   69  51  52 W18G25    30.02S
WEST BEND      PTSUNNY   66  46  48 W15G24    30.04F
JUNEAU         CLOUDY    63  50  61 SW15      30.08S
$$

LSZ147-162-252200-
LAKE SUPERIOR

STATION/POSITION TIME  TEMP    WIND        PRES    WAVE
                       AIR SEA DIR/SP/G            HT/PER
                 (UTC) (F)     (DEG/KT/KT) (MB)    (FT/S)
W MID LAKE BUOY  1950   42 39   60/  6/  6 1017.2F   1
DEVILS ISLAND    2000   51     330/  3/  4 1017.2R
SAXON HARBOR     2040   55     270/  7/ 13 1017.3R
$$

LMZ867-665-643>646-252200-
LAKE MICHIGAN

STATION/POSITION TIME  TEMP    WIND        PRES    WAVE
                       AIR SEA DIR/SP/G            HT/PER
                 (UTC) (F)     (DEG/KT/KT) (MB)    (FT/S)
CHAMBERS ISLAND  2040   63      CALM  /  5 1015.2R
S GREEN BAY BUOY 2030   62     150/ 10/ 12 1015.5S
N MID LAKE BUOY  1950   58 58  200/  6/  6 1015.9S   1/ 4
NORTHPORT PIER   2040   64     310/  3/  8 1015.2S
KEWAUNEE LAKESHO 2030   60     120/  5/ 10 1015.4F
SHEBOYGAN LAKESH 2000   66     290/ 17/ 20 1016.4S
PORT WASHINGTON  2040   70     290/ 11/ 20 1017.6S
ATWATER BUOY     1909   65 57  270/ 16/ 23 1017.5F
MILWAUKEE LAKESH 2030   67     300/ 17/ 21   N/A
S MID LAKE BUOY  1950   63 62  260/  8/ 10 1017.9F   2/ 4
KENOSHA   LAKESH 2000   68     270/ 11/ 23 1017.6
$$

TC  - TEMPERATURE IN CELSIUS
VSB - VISIBILITY IN STATUTE MILES
WCI - WIND CHILL INDEX
HX  - HEAT INDEX





USA.gov is the U.S. government's official web portal to all federal, state and local government web resources and services.